Time,TemperatureF,DewpointF,PressureIn,WindDirection,WindDirectionDegrees,WindSpeedMPH,WindSpeedGustMPH,Humidity,HourlyPrecipIn,Conditions,Clouds,dailyrainin,SoftwareType,DateUTC
2013-02-18 00:03:00,33.5,27.1,30.20,SSW,209,0.0,1.0,77,0.00,,,0.00,Wunderground v.1.15,2013-02-18 08:03:00,
2013-02-18 00:08:00,33.3,26.9,30.20,SSW,209,1.0,1.0,77,0.00,,,0.00,Wunderground v.1.15,2013-02-18 08:08:00,
2013-02-18 00:14:00,33.4,27.0,30.20,SSW,209,1.0,3.0,77,0.00,,,0.00,Wunderground v.1.15,2013-02-18 08:14:00,
2013-02-18 00:20:00,33.6,26.8,30.19,SSW,209,0.0,1.0,76,0.00,,,0.00,Wunderground v.1.15,2013-02-18 08:20:00,
2013-02-18 00:26:00,33.7,26.9,30.20,SSW,209,0.0,1.0,76,0.00,,,0.00,Wunderground v.1.15,2013-02-18 08:26:00,
2013-02-18 00:31:00,33.5,26.7,30.20,SSW,209,0.0,0.0,76,0.00,,,0.00,Wunderground v.1.15,2013-02-18 08:31:00,
2013-02-18 00:37:00,33.5,26.7,30.20,South,172,6.0,6.0,76,0.00,,,0.00,Wunderground v.1.15,2013-02-18 08:37:00,
2013-02-18 00:43:00,33.1,26.7,30.20,SSE,155,6.0,9.0,77,0.00,,,0.00,Wunderground v.1.15,2013-02-18 08:43:00,
2013-02-18 00:49:00,32.4,26.3,30.20,SSE,165,6.0,9.0,78,0.00,,,0.00,Wunderground v.1.15,2013-02-18 08:49:00,
2013-02-18 00:55:00,32.2,26.4,30.20,SSE,161,3.0,7.0,79,0.00,,,0.00,Wunderground v.1.15,2013-02-18 08:55:00,
2013-02-18 01:00:00,32.3,26.5,30.20,SSE,161,4.0,4.0,79,0.00,,,0.00,Wunderground v.1.15,2013-02-18 09:00:00,
2013-02-18 01:06:00,32.3,26.5,30.20,SSE,161,3.0,4.0,79,0.00,,,0.00,Wunderground v.1.15,2013-02-18 09:06:00,
2013-02-18 01:11:00,32.4,26.6,30.20,SSE,161,3.0,5.0,79,0.00,,,0.00,Wunderground v.1.15,2013-02-18 09:11:00,
2013-02-18 01:17:00,32.5,26.4,30.20,SSE,161,5.0,5.0,78,0.00,,,0.00,Wunderground v.1.15,2013-02-18 09:17:00,
2013-02-18 01:23:00,33.0,26.9,30.20,SSE,161,5.0,6.0,78,0.00,,,0.00,Wunderground v.1.15,2013-02-18 09:23:00,
2013-02-18 01:29:00,33.2,26.8,30.20,SSE,161,2.0,6.0,77,0.00,,,0.00,Wunderground v.1.15,2013-02-18 09:29:00,
2013-02-18 01:34:00,33.2,26.8,30.20,SSE,161,4.0,4.0,77,0.00,,,0.00,Wunderground v.1.15,2013-02-18 09:34:00,
2013-02-18 01:39:00,33.4,26.6,30.20,SSE,161,4.0,5.0,76,0.00,,,0.00,Wunderground v.1.15,2013-02-18 09:39:00,
2013-02-18 01:45:00,33.4,26.6,30.20,SSE,161,4.0,4.0,76,0.00,,,0.00,Wunderground v.1.15,2013-02-18 09:45:00,
2013-02-18 01:51:00,33.2,26.8,30.20,SSE,161,3.0,4.0,77,0.00,,,0.00,Wunderground v.1.15,2013-02-18 09:51:00,
2013-02-18 01:56:00,32.9,26.5,30.20,SSE,161,2.0,4.0,77,0.00,,,0.00,Wunderground v.1.15,2013-02-18 09:56:00,
2013-02-18 02:01:00,32.7,26.3,30.20,SSE,161,3.0,4.0,77,0.00,,,0.00,Wunderground v.1.15,2013-02-18 10:01:00,
2013-02-18 02:06:00,32.6,26.5,30.20,SSE,161,2.0,4.0,78,0.00,,,0.00,Wunderground v.1.15,2013-02-18 10:06:00,
2013-02-18 02:11:00,32.4,26.3,30.19,SSE,161,4.0,5.0,78,0.00,,,0.00,Wunderground v.1.15,2013-02-18 10:11:00,
2013-02-18 02:16:00,32.1,26.3,30.19,SSE,161,4.0,5.0,79,0.00,,,0.00,Wunderground v.1.15,2013-02-18 10:16:00,
2013-02-18 02:21:00,31.8,26.0,30.19,SSE,161,3.0,4.0,79,0.00,,,0.00,Wunderground v.1.15,2013-02-18 10:21:00,
2013-02-18 02:26:00,31.5,26.0,30.19,SSE,161,4.0,5.0,80,0.00,,,0.00,Wunderground v.1.15,2013-02-18 10:26:00,
2013-02-18 02:31:00,31.5,26.0,30.19,SSE,161,4.0,5.0,80,0.00,,,0.00,Wunderground v.1.15,2013-02-18 10:31:00,
2013-02-18 02:36:00,31.5,26.3,30.19,SSE,161,6.0,6.0,81,0.00,,,0.00,Wunderground v.1.15,2013-02-18 10:36:00,
2013-02-18 02:41:00,31.6,26.1,30.19,SSE,161,4.0,6.0,80,0.00,,,0.00,Wunderground v.1.15,2013-02-18 10:41:00,
2013-02-18 02:46:00,31.8,26.3,30.19,SSE,161,4.0,6.0,80,0.00,,,0.00,Wunderground v.1.15,2013-02-18 10:46:00,
2013-02-18 02:51:00,32.0,26.5,30.18,SSE,161,5.0,5.0,80,0.00,,,0.00,Wunderground v.1.15,2013-02-18 10:51:00,
2013-02-18 02:56:00,32.1,26.3,30.18,SSE,161,5.0,5.0,79,0.00,,,0.00,Wunderground v.1.15,2013-02-18 10:56:00,
2013-02-18 03:01:00,32.1,26.3,30.18,SSE,161,4.0,5.0,79,0.00,,,0.00,Wunderground v.1.15,2013-02-18 11:01:00,
2013-02-18 03:06:00,32.0,26.2,30.18,SSE,161,3.0,5.0,79,0.00,,,0.00,Wunderground v.1.15,2013-02-18 11:06:00,
2013-02-18 03:11:00,32.0,26.2,30.18,SSE,161,2.0,4.0,79,0.00,,,0.00,Wunderground v.1.15,2013-02-18 11:11:00,
2013-02-18 03:17:00,31.9,26.1,30.18,SSE,161,4.0,4.0,79,0.00,,,0.00,Wunderground v.1.15,2013-02-18 11:17:00,
2013-02-18 03:22:00,31.9,26.1,30.18,SSE,161,3.0,4.0,79,0.00,,,0.00,Wunderground v.1.15,2013-02-18 11:22:00,
2013-02-18 03:27:00,32.1,26.3,30.18,SSE,161,3.0,5.0,79,0.00,,,0.00,Wunderground v.1.15,2013-02-18 11:27:00,
2013-02-18 03:32:00,32.2,26.1,30.17,SSE,161,1.0,3.0,78,0.00,,,0.00,Wunderground v.1.15,2013-02-18 11:32:00,
2013-02-18 03:37:00,32.1,26.0,30.17,SSE,161,2.0,3.0,78,0.00,,,0.00,Wunderground v.1.15,2013-02-18 11:37:00,
2013-02-18 03:42:00,32.1,26.0,30.17,SSE,161,2.0,4.0,78,0.00,,,0.00,Wunderground v.1.15,2013-02-18 11:42:00,
2013-02-18 03:47:00,32.1,26.0,30.17,SSE,161,1.0,4.0,78,0.00,,,0.00,Wunderground v.1.15,2013-02-18 11:47:00,
2013-02-18 03:52:00,32.0,26.2,30.17,SSE,161,1.0,3.0,79,0.00,,,0.00,Wunderground v.1.15,2013-02-18 11:52:00,
2013-02-18 03:57:00,32.0,26.2,30.17,SSE,161,0.0,3.0,79,0.00,,,0.00,Wunderground v.1.15,2013-02-18 11:57:00,
2013-02-18 04:02:00,32.0,25.9,30.17,SSE,161,0.0,2.0,78,0.00,,,0.00,Wunderground v.1.15,2013-02-18 12:02:00,
2013-02-18 04:07:00,31.9,26.1,30.17,SSE,161,0.0,2.0,79,0.00,,,0.00,Wunderground v.1.15,2013-02-18 12:07:00,
2013-02-18 04:12:00,31.7,25.9,30.17,SSE,161,0.0,0.0,79,0.00,,,0.00,Wunderground v.1.15,2013-02-18 12:12:00,
2013-02-18 04:17:00,31.7,25.9,30.17,SSE,161,0.0,0.0,79,0.00,,,0.00,Wunderground v.1.15,2013-02-18 12:17:00,
2013-02-18 04:22:00,31.6,25.8,30.17,SSE,161,0.0,2.0,79,0.00,,,0.00,Wunderground v.1.15,2013-02-18 12:22:00,
2013-02-18 04:27:00,31.5,26.0,30.17,SSE,161,0.0,2.0,80,0.00,,,0.00,Wunderground v.1.15,2013-02-18 12:27:00,
2013-02-18 04:32:00,31.6,26.1,30.17,SSE,161,0.0,0.0,80,0.00,,,0.00,Wunderground v.1.15,2013-02-18 12:32:00,
2013-02-18 04:37:00,31.5,26.0,30.17,SSE,161,0.0,1.0,80,0.00,,,0.00,Wunderground v.1.15,2013-02-18 12:37:00,
2013-02-18 04:42:00,31.5,26.0,30.17,SSE,161,0.0,1.0,80,0.00,,,0.00,Wunderground v.1.15,2013-02-18 12:42:00,
2013-02-18 04:47:00,31.3,25.8,30.17,SSE,161,2.0,2.0,80,0.00,,,0.00,Wunderground v.1.15,2013-02-18 12:47:00,
2013-02-18 04:52:00,31.0,25.9,30.17,SSE,161,2.0,3.0,81,0.00,,,0.00,Wunderground v.1.15,2013-02-18 12:52:00,
2013-02-18 04:57:00,30.7,25.9,30.17,SSE,161,2.0,3.0,82,0.00,,,0.00,Wunderground v.1.15,2013-02-18 12:57:00,
2013-02-18 05:03:00,30.5,25.7,30.16,SSE,161,3.0,3.0,82,0.00,,,0.00,Wunderground v.1.15,2013-02-18 13:03:00,
2013-02-18 05:08:00,30.3,25.8,30.16,SSE,161,3.0,4.0,83,0.00,,,0.00,Wunderground v.1.15,2013-02-18 13:08:00,
2013-02-18 05:13:00,29.9,25.4,30.16,SSE,161,2.0,3.0,83,0.00,,,0.00,Wunderground v.1.15,2013-02-18 13:13:00,
2013-02-18 05:19:00,29.3,25.1,30.16,SE,135,4.0,4.0,84,0.00,,,0.00,Wunderground v.1.15,2013-02-18 13:19:00,
2013-02-18 05:24:00,28.9,25.0,30.16,NE,49,5.0,6.0,85,0.00,,,0.00,Wunderground v.1.15,2013-02-18 13:24:00,
2013-02-18 05:29:00,28.3,24.9,30.16,NE,46,5.0,6.0,87,0.00,,,0.00,Wunderground v.1.15,2013-02-18 13:29:00,
2013-02-18 05:34:00,28.2,25.1,30.16,NE,44,5.0,7.0,88,0.00,,,0.00,Wunderground v.1.15,2013-02-18 13:34:00,
2013-02-18 05:39:00,28.3,25.2,30.16,NE,43,4.0,7.0,88,0.00,,,0.00,Wunderground v.1.15,2013-02-18 13:39:00,
2013-02-18 05:44:00,28.3,25.2,30.16,NE,42,6.0,7.0,88,0.00,,,0.00,Wunderground v.1.15,2013-02-18 13:44:00,
2013-02-18 05:49:00,28.3,24.9,30.16,NNE,27,5.0,5.0,87,0.00,,,0.00,Wunderground v.1.15,2013-02-18 13:49:00,
2013-02-18 05:54:00,28.3,24.9,30.16,NNE,30,6.0,8.0,87,0.00,,,0.00,Wunderground v.1.15,2013-02-18 13:54:00,
2013-02-18 05:59:00,28.3,24.6,30.16,NNE,30,5.0,6.0,86,0.00,,,0.00,Wunderground v.1.15,2013-02-18 13:59:00,
2013-02-18 06:04:00,28.3,24.6,30.15,NNE,28,10.0,10.0,86,0.00,,,0.00,Wunderground v.1.15,2013-02-18 14:04:00,
2013-02-18 06:10:00,28.3,24.6,30.15,North,10,8.0,8.0,86,0.00,,,0.00,Wunderground v.1.15,2013-02-18 14:10:00,
2013-02-18 06:15:00,28.3,24.4,30.15,NNE,31,8.0,9.0,85,0.00,,,0.00,Wunderground v.1.15,2013-02-18 14:15:00,
2013-02-18 06:20:00,28.2,24.3,30.15,NE,35,5.0,8.0,85,0.00,,,0.00,Wunderground v.1.15,2013-02-18 14:20:00,
2013-02-18 06:25:00,28.1,24.2,30.15,NE,38,8.0,8.0,85,0.00,,,0.00,Wunderground v.1.15,2013-02-18 14:25:00,
2013-02-18 06:30:00,28.2,24.3,30.15,NNE,32,7.0,7.0,85,0.00,,,0.00,Wunderground v.1.15,2013-02-18 14:30:00,
2013-02-18 06:35:00,28.1,24.2,30.15,NE,34,6.0,7.0,85,0.00,,,0.00,Wunderground v.1.15,2013-02-18 14:35:00,
2013-02-18 06:40:00,28.3,24.4,30.15,NNE,25,7.0,7.0,85,0.00,,,0.00,Wunderground v.1.15,2013-02-18 14:40:00,
2013-02-18 06:45:00,28.5,24.3,30.15,NNE,24,4.0,8.0,84,0.00,,,0.00,Wunderground v.1.15,2013-02-18 14:45:00,
2013-02-18 06:50:00,28.4,24.2,30.15,NNE,30,5.0,8.0,84,0.00,,,0.00,Wunderground v.1.15,2013-02-18 14:50:00,
2013-02-18 06:55:00,28.4,24.2,30.14,NNE,22,6.0,9.0,84,0.00,,,0.00,Wunderground v.1.15,2013-02-18 14:55:00,
2013-02-18 07:00:00,28.4,24.2,30.14,NNE,19,8.0,9.0,84,0.00,,,0.00,Wunderground v.1.15,2013-02-18 15:00:00,
2013-02-18 07:05:00,28.4,24.2,30.14,NNE,22,6.0,9.0,84,0.00,,,0.00,Wunderground v.1.15,2013-02-18 15:05:00,
2013-02-18 07:10:00,28.5,24.0,30.14,NNE,26,5.0,9.0,83,0.00,,,0.00,Wunderground v.1.15,2013-02-18 15:10:00,
2013-02-18 07:15:00,28.6,24.1,30.14,North,10,7.0,9.0,83,0.00,,,0.00,Wunderground v.1.15,2013-02-18 15:15:00,
2013-02-18 07:20:00,28.5,24.0,30.14,NNE,31,5.0,6.0,83,0.00,,,0.00,Wunderground v.1.15,2013-02-18 15:20:00,
2013-02-18 07:25:00,28.6,24.1,30.13,NE,42,6.0,8.0,83,0.00,,,0.00,Wunderground v.1.15,2013-02-18 15:25:00,
2013-02-18 07:31:00,28.6,24.1,30.13,NNE,28,6.0,8.0,83,0.00,,,0.00,Wunderground v.1.15,2013-02-18 15:31:00,
2013-02-18 07:36:00,28.8,24.6,30.13,NNE,30,6.0,8.0,84,0.00,,,0.00,Wunderground v.1.15,2013-02-18 15:36:00,
2013-02-18 07:41:00,29.0,24.8,30.13,NNE,26,5.0,7.0,84,0.00,,,0.00,Wunderground v.1.15,2013-02-18 15:41:00,
2013-02-18 07:46:00,29.2,24.7,30.13,NE,37,7.0,8.0,83,0.00,,,0.00,Wunderground v.1.15,2013-02-18 15:46:00,
2013-02-18 07:51:00,29.3,24.8,30.12,NE,36,6.0,9.0,83,0.00,,,0.00,Wunderground v.1.15,2013-02-18 15:51:00,
2013-02-18 07:56:00,29.4,25.2,30.12,NNE,24,7.0,9.0,84,0.00,,,0.00,Wunderground v.1.15,2013-02-18 15:56:00,
2013-02-18 08:01:00,29.7,25.2,30.12,NNE,28,5.0,7.0,83,0.00,,,0.00,Wunderground v.1.15,2013-02-18 16:01:00,
2013-02-18 08:06:00,29.7,25.2,30.12,NNE,28,5.0,8.0,83,0.00,,,0.00,Wunderground v.1.15,2013-02-18 16:06:00,
2013-02-18 08:11:00,29.8,25.3,30.12,NE,42,5.0,7.0,83,0.00,,,0.00,Wunderground v.1.15,2013-02-18 16:11:00,
2013-02-18 08:16:00,29.9,25.4,30.12,NNE,29,6.0,10.0,83,0.00,,,0.00,Wunderground v.1.15,2013-02-18 16:16:00,
2013-02-18 08:21:00,29.9,25.4,30.11,NNE,25,9.0,9.0,83,0.00,,,0.00,Wunderground v.1.15,2013-02-18 16:21:00,
2013-02-18 08:27:00,29.9,25.4,30.11,NE,38,6.0,9.0,83,0.00,,,0.00,Wunderground v.1.15,2013-02-18 16:27:00,
2013-02-18 08:32:00,30.0,25.5,30.11,NE,38,8.0,9.0,83,0.00,,,0.00,Wunderground v.1.15,2013-02-18 16:32:00,
2013-02-18 08:37:00,30.0,25.5,30.11,NNE,32,9.0,9.0,83,0.00,,,0.00,Wunderground v.1.15,2013-02-18 16:37:00,
2013-02-18 08:42:00,30.2,25.7,30.11,NNE,27,5.0,9.0,83,0.00,,,0.00,Wunderground v.1.15,2013-02-18 16:42:00,
2013-02-18 08:47:00,30.2,25.7,30.10,NNE,28,5.0,9.0,83,0.00,,,0.00,Wunderground v.1.15,2013-02-18 16:47:00,
2013-02-18 08:52:00,30.2,25.7,30.10,NNE,27,5.0,8.0,83,0.00,,,0.00,Wunderground v.1.15,2013-02-18 16:52:00,
2013-02-18 08:57:00,30.3,25.8,30.10,NNE,26,7.0,8.0,83,0.00,,,0.00,Wunderground v.1.15,2013-02-18 16:57:00,
2013-02-18 09:02:00,30.1,25.6,30.10,NE,46,5.0,7.0,83,0.00,,,0.00,Wunderground v.1.15,2013-02-18 17:02:00,
2013-02-18 09:07:00,30.1,25.6,30.10,NNE,19,7.0,8.0,83,0.00,,,0.00,Wunderground v.1.15,2013-02-18 17:07:00,
2013-02-18 09:12:00,30.2,25.7,30.10,NE,42,5.0,7.0,83,0.00,,,0.00,Wunderground v.1.15,2013-02-18 17:12:00,
2013-02-18 09:17:00,30.5,26.0,30.10,NNE,22,5.0,7.0,83,0.00,,,0.00,Wunderground v.1.15,2013-02-18 17:17:00,
2013-02-18 09:22:00,30.8,26.2,30.10,NE,38,4.0,6.0,83,0.00,,,0.00,Wunderground v.1.15,2013-02-18 17:22:00,
2013-02-18 09:27:00,31.0,26.1,30.10,NNE,33,5.0,6.0,82,0.00,,,0.00,Wunderground v.1.15,2013-02-18 17:27:00,
2013-02-18 09:33:00,31.2,26.0,30.10,NNE,30,6.0,6.0,81,0.00,,,0.00,Wunderground v.1.15,2013-02-18 17:33:00,
2013-02-18 09:39:00,31.3,26.4,30.10,NNE,30,4.0,6.0,82,0.00,,,0.00,Wunderground v.1.15,2013-02-18 17:39:00,
2013-02-18 09:44:00,31.5,26.3,30.10,NE,41,2.0,6.0,81,0.00,,,0.00,Wunderground v.1.15,2013-02-18 17:44:00,
2013-02-18 09:49:00,31.8,26.6,30.10,NNE,22,3.0,6.0,81,0.00,,,0.00,Wunderground v.1.15,2013-02-18 17:49:00,
2013-02-18 09:54:00,32.3,27.1,30.09,NNE,16,4.0,5.0,81,0.00,,,0.00,Wunderground v.1.15,2013-02-18 17:54:00,
2013-02-18 09:59:00,32.5,27.0,30.09,NE,35,3.0,5.0,80,0.00,,,0.00,Wunderground v.1.15,2013-02-18 17:59:00,
2013-02-18 10:04:00,32.6,26.8,30.09,NNE,30,2.0,5.0,79,0.00,,,0.00,Wunderground v.1.15,2013-02-18 18:04:00,
2013-02-18 10:10:00,33.0,27.2,30.09,NNE,32,3.0,3.0,79,0.00,,,0.00,Wunderground v.1.15,2013-02-18 18:10:00,
2013-02-18 10:15:00,33.2,27.4,30.09,NE,38,4.0,4.0,79,0.00,,,0.00,Wunderground v.1.15,2013-02-18 18:15:00,
2013-02-18 10:20:00,33.6,27.5,30.09,NE,38,5.0,5.0,78,0.00,,,0.00,Wunderground v.1.15,2013-02-18 18:20:00,
2013-02-18 10:25:00,34.0,27.5,30.09,NE,45,5.0,6.0,77,0.00,,,0.00,Wunderground v.1.15,2013-02-18 18:25:00,
2013-02-18 10:30:00,34.2,27.7,30.09,NE,48,6.0,7.0,77,0.00,,,0.00,Wunderground v.1.15,2013-02-18 18:30:00,
2013-02-18 10:35:00,34.3,27.5,30.09,ENE,62,3.0,8.0,76,0.00,,,0.00,Wunderground v.1.15,2013-02-18 18:35:00,
2013-02-18 10:40:00,34.6,27.8,30.09,ENE,58,3.0,5.0,76,0.00,,,0.00,Wunderground v.1.15,2013-02-18 18:40:00,
2013-02-18 10:45:00,34.8,28.0,30.08,ENE,59,2.0,6.0,76,0.00,,,0.00,Wunderground v.1.15,2013-02-18 18:45:00,
2013-02-18 10:50:00,34.8,27.7,30.08,NE,46,4.0,5.0,75,0.00,,,0.00,Wunderground v.1.15,2013-02-18 18:50:00,
2013-02-18 10:55:00,34.9,28.1,30.08,NE,44,7.0,8.0,76,0.00,,,0.00,Wunderground v.1.15,2013-02-18 18:55:00,
2013-02-18 11:00:00,34.9,27.8,30.08,NE,49,6.0,7.0,75,0.00,,,0.00,Wunderground v.1.15,2013-02-18 19:00:00,
2013-02-18 11:05:00,35.1,28.0,30.08,NE,50,5.0,7.0,75,0.00,,,0.00,Wunderground v.1.15,2013-02-18 19:05:00,
2013-02-18 11:10:00,35.4,28.3,30.08,NE,45,3.0,6.0,75,0.00,,,0.00,Wunderground v.1.15,2013-02-18 19:10:00,
2013-02-18 11:15:00,35.4,27.9,30.07,NNE,28,3.0,7.0,74,0.00,,,0.00,Wunderground v.1.15,2013-02-18 19:15:00,
2013-02-18 11:20:00,35.4,27.9,30.07,NNE,26,2.0,6.0,74,0.00,,,0.00,Wunderground v.1.15,2013-02-18 19:20:00,
2013-02-18 11:25:00,35.5,28.0,30.07,NE,56,5.0,8.0,74,0.00,,,0.00,Wunderground v.1.15,2013-02-18 19:25:00,
2013-02-18 11:30:00,35.7,27.9,30.07,NE,48,5.0,6.0,73,0.00,,,0.00,Wunderground v.1.15,2013-02-18 19:30:00,
2013-02-18 11:35:00,35.9,28.4,30.06,NE,46,4.0,8.0,74,0.00,,,0.00,Wunderground v.1.15,2013-02-18 19:35:00,
2013-02-18 11:40:00,36.2,28.4,30.06,NE,49,7.0,7.0,73,0.00,,,0.00,Wunderground v.1.15,2013-02-18 19:40:00,
2013-02-18 11:46:00,36.4,28.2,30.06,ENE,59,5.0,8.0,72,0.00,,,0.00,Wunderground v.1.15,2013-02-18 19:46:00,
2013-02-18 11:51:00,36.6,28.8,30.06,NE,46,5.0,5.0,73,0.00,,,0.00,Wunderground v.1.15,2013-02-18 19:51:00,
2013-02-18 11:56:00,36.9,28.4,30.05,NE,41,7.0,7.0,71,0.00,,,0.00,Wunderground v.1.15,2013-02-18 19:56:00,
2013-02-18 12:01:00,37.1,28.6,30.05,NE,43,4.0,6.0,71,0.00,,,0.00,Wunderground v.1.15,2013-02-18 20:01:00,
2013-02-18 12:06:00,37.5,28.6,30.05,NE,53,5.0,8.0,70,0.00,,,0.00,Wunderground v.1.15,2013-02-18 20:06:00,
2013-02-18 12:11:00,37.5,28.6,30.05,East,89,8.0,8.0,70,0.00,,,0.00,Wunderground v.1.15,2013-02-18 20:11:00,
2013-02-18 12:16:00,37.7,28.8,30.05,NE,54,4.0,8.0,70,0.00,,,0.00,Wunderground v.1.15,2013-02-18 20:16:00,
2013-02-18 12:21:00,37.9,28.6,30.05,ENE,57,3.0,7.0,69,0.00,,,0.00,Wunderground v.1.15,2013-02-18 20:21:00,
2013-02-18 12:26:00,38.3,29.0,30.05,ESE,117,5.0,8.0,69,0.00,,,0.00,Wunderground v.1.15,2013-02-18 20:26:00,
2013-02-18 12:31:00,38.5,28.9,30.05,NE,40,3.0,5.0,68,0.00,,,0.00,Wunderground v.1.15,2013-02-18 20:31:00,
2013-02-18 12:36:00,38.6,28.9,30.04,ENE,63,7.0,10.0,68,0.00,,,0.00,Wunderground v.1.15,2013-02-18 20:36:00,
2013-02-18 12:41:00,38.9,28.9,30.04,ENE,69,3.0,8.0,67,0.00,,,0.00,Wunderground v.1.15,2013-02-18 20:41:00,
2013-02-18 12:46:00,39.2,28.8,30.04,SE,132,0.0,8.0,66,0.00,,,0.00,Wunderground v.1.15,2013-02-18 20:46:00,
2013-02-18 12:51:00,39.4,28.2,30.04,East,92,7.0,10.0,64,0.00,,,0.00,Wunderground v.1.15,2013-02-18 20:51:00,
2013-02-18 12:56:00,39.4,28.2,30.03,East,97,6.0,10.0,64,0.00,,,0.00,Wunderground v.1.15,2013-02-18 20:56:00,
2013-02-18 13:02:00,39.5,27.9,30.03,SE,130,7.0,9.0,63,0.00,,,0.00,Wunderground v.1.15,2013-02-18 21:02:00,
2013-02-18 13:07:00,39.6,28.0,30.03,ESE,108,2.0,10.0,63,0.00,,,0.00,Wunderground v.1.15,2013-02-18 21:07:00,
2013-02-18 13:12:00,39.7,27.7,30.03,East,101,6.0,8.0,62,0.00,,,0.00,Wunderground v.1.15,2013-02-18 21:12:00,
2013-02-18 13:17:00,40.0,27.6,30.02,SE,130,6.0,8.0,61,0.00,,,0.00,Wunderground v.1.15,2013-02-18 21:17:00,
2013-02-18 13:22:00,40.1,26.5,30.02,SE,124,7.0,10.0,58,0.00,,,0.00,Wunderground v.1.15,2013-02-18 21:22:00,
2013-02-18 13:28:00,39.9,26.3,30.02,East,86,5.0,10.0,58,0.00,,,0.00,Wunderground v.1.15,2013-02-18 21:28:00,
2013-02-18 13:33:00,40.0,26.0,30.02,SE,124,6.0,10.0,57,0.00,,,0.00,Wunderground v.1.15,2013-02-18 21:33:00,
2013-02-18 13:39:00,39.9,26.3,30.02,ESE,123,5.0,10.0,58,0.00,,,0.00,Wunderground v.1.15,2013-02-18 21:39:00,
2013-02-18 13:44:00,39.9,26.7,30.02,SE,140,9.0,12.0,59,0.00,,,0.00,Wunderground v.1.15,2013-02-18 21:44:00,
2013-02-18 13:49:00,39.9,26.7,30.02,SSE,150,8.0,12.0,59,0.00,,,0.00,Wunderground v.1.15,2013-02-18 21:49:00,
2013-02-18 13:54:00,40.0,26.8,30.02,ESE,107,12.0,12.0,59,0.00,,,0.00,Wunderground v.1.15,2013-02-18 21:54:00,
2013-02-18 13:59:00,40.0,27.2,30.02,SE,140,4.0,12.0,60,0.00,,,0.00,Wunderground v.1.15,2013-02-18 21:59:00,
2013-02-18 14:04:00,40.1,26.9,30.01,SE,124,7.0,8.0,59,0.00,,,0.00,Wunderground v.1.15,2013-02-18 22:04:00,
2013-02-18 14:09:00,40.1,26.9,30.01,ESE,111,2.0,9.0,59,0.00,,,0.00,Wunderground v.1.15,2013-02-18 22:09:00,
2013-02-18 14:14:00,40.4,27.6,30.01,ESE,118,9.0,11.0,60,0.00,,,0.00,Wunderground v.1.15,2013-02-18 22:14:00,
2013-02-18 14:19:00,40.3,26.7,30.01,SE,138,5.0,11.0,58,0.00,,,0.00,Wunderground v.1.15,2013-02-18 22:19:00,
2013-02-18 14:24:00,40.3,27.1,30.01,SSE,153,4.0,7.0,59,0.00,,,0.00,Wunderground v.1.15,2013-02-18 22:24:00,
2013-02-18 14:29:00,40.4,27.2,30.01,ESE,111,5.0,7.0,59,0.00,,,0.00,Wunderground v.1.15,2013-02-18 22:29:00,
2013-02-18 14:34:00,40.4,26.8,30.01,SE,146,5.0,9.0,58,0.00,,,0.00,Wunderground v.1.15,2013-02-18 22:34:00,
2013-02-18 14:39:00,40.3,27.5,30.01,SSE,157,5.0,9.0,60,0.00,,,0.00,Wunderground v.1.15,2013-02-18 22:39:00,
2013-02-18 14:44:00,40.3,27.5,30.00,SE,141,4.0,7.0,60,0.00,,,0.00,Wunderground v.1.15,2013-02-18 22:44:00,
2013-02-18 14:49:00,40.3,27.1,30.00,SE,134,6.0,10.0,59,0.00,,,0.00,Wunderground v.1.15,2013-02-18 22:49:00,
2013-02-18 14:54:00,40.3,27.1,30.00,SE,139,6.0,9.0,59,0.00,,,0.00,Wunderground v.1.15,2013-02-18 22:54:00,
2013-02-18 14:59:00,40.3,27.5,30.00,SE,131,4.0,9.0,60,0.00,,,0.00,Wunderground v.1.15,2013-02-18 22:59:00,
2013-02-18 15:04:00,40.4,27.2,30.00,SE,140,6.0,6.0,59,0.00,,,0.00,Wunderground v.1.15,2013-02-18 23:04:00,
2013-02-18 15:09:00,40.4,27.2,30.00,East,98,5.0,6.0,59,0.00,,,0.00,Wunderground v.1.15,2013-02-18 23:09:00,
2013-02-18 15:14:00,40.5,27.3,30.00,ESE,117,3.0,7.0,59,0.00,,,0.00,Wunderground v.1.15,2013-02-18 23:14:00,
2013-02-18 15:19:00,40.5,27.3,30.00,SE,126,2.0,4.0,59,0.00,,,0.00,Wunderground v.1.15,2013-02-18 23:19:00,
2013-02-18 15:24:00,40.5,27.7,30.00,ESE,111,0.0,4.0,60,0.00,,,0.00,Wunderground v.1.15,2013-02-18 23:24:00,
2013-02-18 15:29:00,40.5,27.3,30.00,ESE,119,4.0,4.0,59,0.00,,,0.00,Wunderground v.1.15,2013-02-18 23:29:00,
2013-02-18 15:35:00,40.5,27.7,29.99,ESE,119,1.0,4.0,60,0.00,,,0.00,Wunderground v.1.15,2013-02-18 23:35:00,
2013-02-18 15:40:00,40.5,27.3,29.99,ESE,117,9.0,9.0,59,0.00,,,0.00,Wunderground v.1.15,2013-02-18 23:40:00,
2013-02-18 15:45:00,40.4,27.2,29.99,East,93,5.0,9.0,59,0.00,,,0.00,Wunderground v.1.15,2013-02-18 23:45:00,
2013-02-18 15:50:00,40.1,26.5,29.98,SE,130,2.0,5.0,58,0.00,,,0.00,Wunderground v.1.15,2013-02-18 23:50:00,
2013-02-18 15:55:00,40.0,26.8,29.98,ENE,65,4.0,7.0,59,0.00,,,0.00,Wunderground v.1.15,2013-02-18 23:55:00,
2013-02-18 16:00:00,39.9,26.7,29.98,South,173,1.0,5.0,59,0.00,,,0.00,Wunderground v.1.15,2013-02-19 00:00:00,
2013-02-18 16:05:00,39.6,26.8,29.98,SE,132,8.0,8.0,60,0.00,,,0.00,Wunderground v.1.15,2013-02-19 00:05:00,
2013-02-18 16:10:00,39.6,28.0,29.98,ENE,76,9.0,13.0,63,0.00,,,0.00,Wunderground v.1.15,2013-02-19 00:10:00,
2013-02-18 16:15:00,39.4,27.5,29.97,ESE,117,7.0,13.0,62,0.00,,,0.00,Wunderground v.1.15,2013-02-19 00:15:00,
2013-02-18 16:20:00,39.5,27.5,29.97,ENE,66,7.0,8.0,62,0.00,,,0.00,Wunderground v.1.15,2013-02-19 00:20:00,
2013-02-18 16:25:00,39.7,26.9,29.97,ENE,78,4.0,11.0,60,0.00,,,0.00,Wunderground v.1.15,2013-02-19 00:25:00,
2013-02-18 16:30:00,39.8,26.6,29.97,East,82,5.0,7.0,59,0.00,,,0.00,Wunderground v.1.15,2013-02-19 00:30:00,
2013-02-18 16:35:00,39.8,27.0,29.97,ENE,74,4.0,7.0,60,0.00,,,0.00,Wunderground v.1.15,2013-02-19 00:35:00,
2013-02-18 16:40:00,39.8,27.0,29.96,ENE,57,4.0,5.0,60,0.00,,,0.00,Wunderground v.1.15,2013-02-19 00:40:00,
2013-02-18 16:45:00,39.8,27.0,29.96,ENE,62,8.0,8.0,60,0.00,,,0.00,Wunderground v.1.15,2013-02-19 00:45:00,
2013-02-18 16:51:00,39.8,26.6,29.96,ENE,64,5.0,5.0,59,0.00,,,0.00,Wunderground v.1.15,2013-02-19 00:51:00,
2013-02-18 16:56:00,39.7,26.5,29.96,ENE,63,4.0,5.0,59,0.00,,,0.00,Wunderground v.1.15,2013-02-19 00:56:00,
2013-02-18 17:01:00,39.6,26.4,29.96,ENE,64,5.0,7.0,59,0.00,,,0.00,Wunderground v.1.15,2013-02-19 01:01:00,
2013-02-18 17:06:00,39.5,26.3,29.96,ENE,71,3.0,7.0,59,0.00,,,0.00,Wunderground v.1.15,2013-02-19 01:06:00,
2013-02-18 17:11:00,39.5,26.3,29.96,NE,55,4.0,5.0,59,0.00,,,0.00,Wunderground v.1.15,2013-02-19 01:11:00,
2013-02-18 17:16:00,39.4,26.7,29.96,NE,55,3.0,5.0,60,0.00,,,0.00,Wunderground v.1.15,2013-02-19 01:16:00,
2013-02-18 17:21:00,39.2,26.5,29.96,NE,55,3.0,4.0,60,0.00,,,0.00,Wunderground v.1.15,2013-02-19 01:21:00,
2013-02-18 17:26:00,39.2,26.5,29.96,NE,56,3.0,6.0,60,0.00,,,0.00,Wunderground v.1.15,2013-02-19 01:26:00,
2013-02-18 17:31:00,39.1,26.8,29.95,ENE,71,5.0,7.0,61,0.00,,,0.00,Wunderground v.1.15,2013-02-19 01:31:00,
2013-02-18 17:36:00,39.0,26.7,29.95,ENE,76,2.0,8.0,61,0.00,,,0.00,Wunderground v.1.15,2013-02-19 01:36:00,
2013-02-18 17:41:00,38.8,26.9,29.95,ENE,60,3.0,7.0,62,0.00,,,0.00,Wunderground v.1.15,2013-02-19 01:41:00,
2013-02-18 17:46:00,38.7,27.2,29.95,ENE,65,5.0,8.0,63,0.00,,,0.00,Wunderground v.1.15,2013-02-19 01:46:00,
2013-02-18 17:51:00,38.7,27.2,29.95,ENE,59,4.0,5.0,63,0.00,,,0.00,Wunderground v.1.15,2013-02-19 01:51:00,
2013-02-18 17:56:00,38.7,27.2,29.94,NE,52,6.0,8.0,63,0.00,,,0.00,Wunderground v.1.15,2013-02-19 01:56:00,
2013-02-18 18:01:00,38.6,27.5,29.94,NE,53,4.0,5.0,64,0.00,,,0.00,Wunderground v.1.15,2013-02-19 02:01:00,
2013-02-18 18:06:00,38.4,27.3,29.94,NE,54,6.0,7.0,64,0.00,,,0.00,Wunderground v.1.15,2013-02-19 02:06:00,
2013-02-18 18:11:00,38.3,27.2,29.94,NE,54,5.0,6.0,64,0.00,,,0.00,Wunderground v.1.15,2013-02-19 02:11:00,
2013-02-18 18:16:00,38.2,27.5,29.94,NE,49,4.0,9.0,65,0.00,,,0.00,Wunderground v.1.15,2013-02-19 02:16:00,
2013-02-18 18:21:00,38.0,27.3,29.94,NE,49,4.0,5.0,65,0.00,,,0.00,Wunderground v.1.15,2013-02-19 02:21:00,
2013-02-18 18:26:00,37.9,27.2,29.93,NE,49,4.0,5.0,65,0.00,,,0.00,Wunderground v.1.15,2013-02-19 02:26:00,
2013-02-18 18:31:00,37.8,27.5,29.94,NE,49,4.0,4.0,66,0.00,,,0.00,Wunderground v.1.15,2013-02-19 02:31:00,
2013-02-18 18:36:00,37.8,27.5,29.93,NE,49,4.0,5.0,66,0.00,,,0.00,Wunderground v.1.15,2013-02-19 02:36:00,
2013-02-18 18:41:00,37.7,27.4,29.93,NE,49,3.0,4.0,66,0.00,,,0.00,Wunderground v.1.15,2013-02-19 02:41:00,
2013-02-18 18:46:00,37.7,27.4,29.93,NE,49,3.0,4.0,66,0.00,,,0.00,Wunderground v.1.15,2013-02-19 02:46:00,
2013-02-18 18:51:00,37.6,27.3,29.93,NE,49,3.0,3.0,66,0.00,,,0.00,Wunderground v.1.15,2013-02-19 02:51:00,
2013-02-18 18:56:00,37.5,27.2,29.93,NE,49,2.0,4.0,66,0.00,,,0.00,Wunderground v.1.15,2013-02-19 02:56:00,
2013-02-18 19:02:00,37.5,27.2,29.93,NE,49,2.0,3.0,66,0.00,,,0.00,Wunderground v.1.15,2013-02-19 03:02:00,
2013-02-18 19:07:00,37.7,27.4,29.93,NE,49,2.0,3.0,66,0.00,,,0.00,Wunderground v.1.15,2013-02-19 03:07:00,
2013-02-18 19:12:00,37.7,27.4,29.93,NE,49,2.0,3.0,66,0.00,,,0.00,Wunderground v.1.15,2013-02-19 03:12:00,
2013-02-18 19:17:00,37.7,27.4,29.93,NE,49,0.0,3.0,66,0.00,,,0.00,Wunderground v.1.15,2013-02-19 03:17:00,
2013-02-18 19:22:00,37.7,27.4,29.93,NE,49,1.0,2.0,66,0.00,,,0.00,Wunderground v.1.15,2013-02-19 03:22:00,
2013-02-18 19:27:00,37.6,27.3,29.92,NE,49,1.0,2.0,66,0.00,,,0.00,Wunderground v.1.15,2013-02-19 03:27:00,
2013-02-18 19:32:00,37.5,27.2,29.93,NE,49,0.0,1.0,66,0.00,,,0.00,Wunderground v.1.15,2013-02-19 03:32:00,
2013-02-18 19:37:00,37.3,27.0,29.92,NE,49,2.0,3.0,66,0.00,,,0.00,Wunderground v.1.15,2013-02-19 03:37:00,
2013-02-18 19:42:00,37.2,26.9,29.92,NE,49,2.0,3.0,66,0.00,,,0.00,Wunderground v.1.15,2013-02-19 03:42:00,
2013-02-18 19:47:00,37.0,27.1,29.92,NE,49,3.0,4.0,67,0.00,,,0.00,Wunderground v.1.15,2013-02-19 03:47:00,
2013-02-18 19:52:00,36.9,27.0,29.92,NE,49,2.0,3.0,67,0.00,,,0.00,Wunderground v.1.15,2013-02-19 03:52:00,
2013-02-18 19:57:00,36.8,27.2,29.92,NE,49,2.0,3.0,68,0.00,,,0.00,Wunderground v.1.15,2013-02-19 03:57:00,
2013-02-18 20:02:00,36.7,27.1,29.92,NE,49,2.0,3.0,68,0.00,,,0.00,Wunderground v.1.15,2013-02-19 04:02:00,
2013-02-18 20:07:00,36.7,27.1,29.91,NE,49,3.0,3.0,68,0.00,,,0.00,Wunderground v.1.15,2013-02-19 04:07:00,
2013-02-18 20:12:00,36.8,27.2,29.91,NE,49,2.0,3.0,68,0.00,,,0.00,Wunderground v.1.15,2013-02-19 04:12:00,
2013-02-18 20:17:00,36.8,27.2,29.91,NE,49,3.0,3.0,68,0.00,,,0.00,Wunderground v.1.15,2013-02-19 04:17:00,
2013-02-18 20:23:00,36.7,27.5,29.91,NE,49,3.0,4.0,69,0.00,,,0.00,Wunderground v.1.15,2013-02-19 04:23:00,
2013-02-18 20:29:00,36.7,27.5,29.91,NE,49,4.0,4.0,69,0.00,,,0.00,Wunderground v.1.15,2013-02-19 04:29:00,
2013-02-18 20:34:00,36.8,27.2,29.91,NE,49,4.0,4.0,68,0.00,,,0.00,Wunderground v.1.15,2013-02-19 04:34:00,
2013-02-18 20:39:00,36.8,27.2,29.91,NE,49,4.0,4.0,68,0.00,,,0.00,Wunderground v.1.15,2013-02-19 04:39:00,
2013-02-18 20:44:00,36.7,27.5,29.91,NE,49,4.0,5.0,69,0.00,,,0.00,Wunderground v.1.15,2013-02-19 04:44:00,
2013-02-18 20:49:00,36.7,27.5,29.91,ENE,67,4.0,5.0,69,0.00,,,0.00,Wunderground v.1.15,2013-02-19 04:49:00,
2013-02-18 20:54:00,36.7,27.5,29.91,ENE,58,4.0,5.0,69,0.00,,,0.00,Wunderground v.1.15,2013-02-19 04:54:00,
2013-02-18 20:59:00,36.8,27.2,29.91,ENE,58,2.0,5.0,68,0.00,,,0.00,Wunderground v.1.15,2013-02-19 04:59:00,
2013-02-18 21:00:00,36.8,27.2,29.91,ENE,58,3.0,4.0,68,0.00,,,0.00,Wunderground v.1.15,2013-02-19 05:00:00,
2013-02-18 21:06:00,36.8,27.2,29.91,ENE,58,3.0,4.0,68,0.00,,,0.00,Wunderground v.1.15,2013-02-19 05:06:00,
2013-02-18 21:11:00,36.8,27.2,29.91,ENE,58,2.0,3.0,68,0.00,,,0.00,Wunderground v.1.15,2013-02-19 05:11:00,
2013-02-18 21:15:00,36.8,27.2,29.91,ENE,58,3.0,4.0,68,0.00,,,0.00,Wunderground v.1.15,2013-02-19 05:15:00,
2013-02-18 21:20:00,36.7,27.1,29.91,ENE,58,3.0,4.0,68,0.00,,,0.00,Wunderground v.1.15,2013-02-19 05:20:00,
2013-02-18 21:26:00,36.6,27.4,29.91,ENE,58,3.0,4.0,69,0.00,,,0.00,Wunderground v.1.15,2013-02-19 05:26:00,
2013-02-18 21:31:00,36.6,27.4,29.91,ENE,58,2.0,4.0,69,0.00,,,0.00,Wunderground v.1.15,2013-02-19 05:31:00,
2013-02-18 21:36:00,36.5,27.3,29.91,ENE,58,3.0,4.0,69,0.00,,,0.00,Wunderground v.1.15,2013-02-19 05:36:00,
2013-02-18 21:41:00,36.4,27.2,29.90,ENE,58,3.0,3.0,69,0.00,,,0.00,Wunderground v.1.15,2013-02-19 05:41:00,
2013-02-18 21:46:00,36.4,27.2,29.90,ENE,58,3.0,4.0,69,0.00,,,0.00,Wunderground v.1.15,2013-02-19 05:46:00,
2013-02-18 21:51:00,36.3,27.1,29.90,ENE,58,3.0,3.0,69,0.00,,,0.00,Wunderground v.1.15,2013-02-19 05:51:00,
2013-02-18 21:56:00,36.3,27.1,29.90,ENE,58,3.0,3.0,69,0.00,,,0.00,Wunderground v.1.15,2013-02-19 05:56:00,
2013-02-18 22:01:00,36.2,27.4,29.90,ENE,58,1.0,3.0,70,0.00,,,0.00,Wunderground v.1.15,2013-02-19 06:01:00,
2013-02-18 22:06:00,36.1,27.3,29.90,ENE,58,2.0,3.0,70,0.00,,,0.00,Wunderground v.1.15,2013-02-19 06:06:00,
2013-02-18 22:11:00,35.9,27.1,29.90,ENE,58,0.0,2.0,70,0.00,,,0.00,Wunderground v.1.15,2013-02-19 06:11:00,
2013-02-18 22:16:00,35.8,27.0,29.90,ENE,58,0.0,2.0,70,0.00,,,0.00,Wunderground v.1.15,2013-02-19 06:16:00,
2013-02-18 22:21:00,35.7,27.2,29.90,ENE,58,0.0,0.0,71,0.00,,,0.00,Wunderground v.1.15,2013-02-19 06:21:00,
2013-02-18 22:26:00,35.7,27.2,29.90,ENE,58,0.0,1.0,71,0.00,,,0.00,Wunderground v.1.15,2013-02-19 06:26:00,
2013-02-18 22:31:00,35.7,27.2,29.90,ENE,58,0.0,0.0,71,0.00,,,0.00,Wunderground v.1.15,2013-02-19 06:31:00,
2013-02-18 22:36:00,35.4,27.3,29.90,ENE,58,0.0,0.0,72,0.00,,,0.00,Wunderground v.1.15,2013-02-19 06:36:00,
2013-02-18 22:41:00,35.2,27.4,29.90,ENE,58,0.0,2.0,73,0.00,,,0.00,Wunderground v.1.15,2013-02-19 06:41:00,
2013-02-18 22:46:00,35.1,27.3,29.90,South,176,3.0,4.0,73,0.00,,,0.00,Wunderground v.1.15,2013-02-19 06:46:00,
2013-02-18 22:51:00,34.8,27.7,29.90,South,178,3.0,4.0,75,0.00,,,0.00,Wunderground v.1.15,2013-02-19 06:51:00,
2013-02-18 22:56:00,34.7,27.6,29.90,South,178,3.0,4.0,75,0.00,,,0.00,Wunderground v.1.15,2013-02-19 06:56:00,
2013-02-18 23:01:00,34.7,27.9,29.90,South,178,1.0,4.0,76,0.00,,,0.00,Wunderground v.1.15,2013-02-19 07:01:00,
2013-02-18 23:07:00,34.7,27.9,29.90,South,178,4.0,5.0,76,0.00,,,0.00,Wunderground v.1.15,2013-02-19 07:07:00,
2013-02-18 23:12:00,34.8,27.7,29.90,South,178,3.0,5.0,75,0.00,,,0.00,Wunderground v.1.15,2013-02-19 07:12:00,
2013-02-18 23:17:00,34.9,27.8,29.90,South,178,4.0,5.0,75,0.00,,,0.00,Wunderground v.1.15,2013-02-19 07:17:00,
2013-02-18 23:22:00,35.0,27.9,29.90,South,178,5.0,6.0,75,0.00,,,0.00,Wunderground v.1.15,2013-02-19 07:22:00,
2013-02-18 23:27:00,35.1,27.6,29.89,South,178,3.0,6.0,74,0.00,,,0.00,Wunderground v.1.15,2013-02-19 07:27:00,
2013-02-18 23:32:00,35.2,27.7,29.89,South,178,4.0,5.0,74,0.00,,,0.00,Wunderground v.1.15,2013-02-19 07:32:00,
2013-02-18 23:37:00,35.1,27.6,29.89,South,178,4.0,5.0,74,0.00,,,0.00,Wunderground v.1.15,2013-02-19 07:37:00,
2013-02-18 23:42:00,35.2,27.7,29.89,South,178,3.0,6.0,74,0.00,,,0.00,Wunderground v.1.15,2013-02-19 07:42:00,
2013-02-18 23:47:00,35.2,27.7,29.89,South,178,1.0,6.0,74,0.00,,,0.00,Wunderground v.1.15,2013-02-19 07:47:00,
2013-02-18 23:52:00,35.2,27.7,29.89,South,178,3.0,4.0,74,0.00,,,0.00,Wunderground v.1.15,2013-02-19 07:52:00,
2013-02-18 23:57:00,35.2,27.7,29.89,South,178,2.0,5.0,74,0.00,,,0.00,Wunderground v.1.15,2013-02-19 07:57:00,